Location: Middlebury
(44.0133°N, 73.1813°W)
Time: 16:20:17
(UTC-05:00)

ISS - Pass Details

Date: 12 December 2021
Orbit: 414 x 422 km, 51.6° (Epoch: 16 January)

Event Time Altitude Azimuth Distance (km) Brightness Sun altitude
Rises 16:45:27 0° 284° (WNW) 2,370 0.9 -5.6°
Reaches altitude 10° 16:48:57 10° 245° (WSW) 1,498 0.9 -6.2°
Maximum altitude 16:49:51 11° 230° (SW) 1,448 0.5 -6.3°
Drops below altitude 10° 16:50:44 10° 215° (SW) 1,494 0.1 -6.5°
Sets 16:54:13 0° 176° (S) 2,348 0.3 -7.1°
